TimeCDT,TemperatureF,Dew PointF,Humidity,Sea Level PressureIn,VisibilityMPH,Wind Direction,Wind SpeedMPH,Gust SpeedMPH,PrecipitationIn,Events,Conditions,WindDirDegrees,DateUTC
12:15 AM,57.0,43.9,61,30.23,10.0,ENE,3.5,-,N/A,,Clear,60,2013-04-22 05:15:00
12:35 AM,54.9,42.6,63,30.23,10.0,ENE,3.5,-,N/A,,Clear,70,2013-04-22 05:35:00
12:55 AM,54.7,42.4,63,30.23,10.0,ENE,3.5,-,N/A,,Clear,70,2013-04-22 05:55:00
1:15 AM,54.7,42.1,62,30.22,10.0,ENE,3.5,-,N/A,,Clear,70,2013-04-22 06:15:00
1:35 AM,54.7,41.9,62,30.22,10.0,ENE,3.5,-,N/A,,Scattered Clouds,70,2013-04-22 06:35:00
1:55 AM,54.7,41.9,62,30.21,10.0,ENE,5.8,-,N/A,,Scattered Clouds,70,2013-04-22 06:55:00
2:15 AM,54.7,42.1,62,30.20,10.0,East,4.6,-,N/A,,Clear,80,2013-04-22 07:15:00
2:35 AM,54.7,42.4,63,30.20,10.0,East,3.5,-,N/A,,Clear,90,2013-04-22 07:35:00
2:55 AM,54.7,42.8,64,30.20,10.0,Calm,Calm,-,N/A,,Scattered Clouds,0,2013-04-22 07:55:00
3:15 AM,54.7,43.0,65,30.20,10.0,ENE,4.6,-,N/A,,Scattered Clouds,70,2013-04-22 08:15:00
3:35 AM,54.7,43.3,66,30.20,10.0,East,6.9,-,N/A,,Scattered Clouds,80,2013-04-22 08:35:00
3:55 AM,54.7,43.7,66,30.20,10.0,ENE,5.8,-,N/A,,Scattered Clouds,60,2013-04-22 08:55:00
4:15 AM,54.7,44.1,67,30.20,10.0,ENE,3.5,-,N/A,,Clear,70,2013-04-22 09:15:00
4:35 AM,54.7,43.9,67,30.21,10.0,ENE,4.6,-,N/A,,Scattered Clouds,60,2013-04-22 09:35:00
4:55 AM,54.7,43.3,66,30.21,10.0,ENE,4.6,-,N/A,,Clear,60,2013-04-22 09:55:00
5:15 AM,54.7,43.3,66,30.22,10.0,NE,4.6,-,N/A,,Scattered Clouds,50,2013-04-22 10:15:00
5:35 AM,54.7,43.2,65,30.22,10.0,ENE,4.6,-,N/A,,Scattered Clouds,60,2013-04-22 10:35:00
5:55 AM,54.7,43.7,66,30.22,10.0,ENE,6.9,-,N/A,,Scattered Clouds,60,2013-04-22 10:55:00
6:15 AM,54.7,43.7,66,30.22,10.0,ENE,8.1,-,N/A,,Clear,70,2013-04-22 11:15:00
6:35 AM,54.7,43.9,67,30.23,10.0,East,5.8,-,N/A,,Clear,80,2013-04-22 11:35:00
6:55 AM,54.7,43.7,66,30.24,10.0,East,4.6,-,N/A,,Clear,80,2013-04-22 11:55:00
7:15 AM,55.0,43.7,66,30.25,10.0,NE,3.5,-,N/A,,Scattered Clouds,50,2013-04-22 12:15:00
7:35 AM,56.5,44.8,65,30.25,10.0,ENE,8.1,-,N/A,,Scattered Clouds,60,2013-04-22 12:35:00
7:55 AM,57.2,44.8,63,30.25,10.0,ENE,5.8,-,N/A,,Scattered Clouds,70,2013-04-22 12:55:00
8:15 AM,57.2,44.1,62,30.25,10.0,ENE,4.6,-,N/A,,Scattered Clouds,70,2013-04-22 13:15:00
8:35 AM,59.9,45.1,58,30.25,10.0,ENE,11.5,-,N/A,,Clear,70,2013-04-22 13:35:00
8:55 AM,59.9,44.6,57,30.25,7.0,East,8.1,-,N/A,,Clear,90,2013-04-22 13:55:00
9:15 AM,61.0,44.8,55,30.25,10.0,East,9.2,16.1,N/A,,Clear,90,2013-04-22 14:15:00
9:35 AM,62.2,45.1,54,30.25,10.0,East,9.2,16.1,N/A,,Clear,90,2013-04-22 14:35:00
9:55 AM,62.8,45.0,52,30.26,10.0,ENE,9.2,17.3,N/A,,Scattered Clouds,60,2013-04-22 14:55:00
10:15 AM,65.5,46.8,51,30.26,10.0,East,10.4,17.3,N/A,,Scattered Clouds,90,2013-04-22 15:15:00
10:35 AM,64.9,46.4,51,30.25,10.0,East,4.6,18.4,N/A,,Scattered Clouds,100,2013-04-22 15:35:00
10:55 AM,69.6,49.1,48,30.24,10.0,ENE,11.5,16.1,N/A,,Scattered Clouds,70,2013-04-22 15:55:00
11:15 AM,69.8,48.9,47,30.24,10.0,East,10.4,17.3,N/A,,Clear,100,2013-04-22 16:15:00
11:35 AM,69.8,47.5,45,30.23,10.0,East,9.2,-,N/A,,Clear,90,2013-04-22 16:35:00
11:55 AM,69.8,47.7,45,30.23,10.0,ENE,4.6,-,N/A,,Clear,60,2013-04-22 16:55:00
12:15 PM,69.8,46.4,43,30.22,10.0,ESE,9.2,-,N/A,,Clear,110,2013-04-22 17:15:00
12:35 PM,-9999,-9999,N/A,-9999,-9999.0,North,-9999.0,-,N/A,,Unknown,0,2013-04-22 17:35:00
12:55 PM,-9999,-9999,N/A,-9999,-9999.0,North,-9999.0,-,N/A,,Unknown,0,2013-04-22 17:55:00
1:15 PM,-9999,-9999,N/A,-9999,-9999.0,North,-9999.0,-,N/A,,Unknown,0,2013-04-22 18:15:00
1:35 PM,75.6,50.0,41,30.19,10.0,NE,9.2,-,0.03,,Clear,50,2013-04-22 18:35:00
1:55 PM,75.6,50.4,41,30.18,10.0,East,10.4,-,0.03,,Clear,90,2013-04-22 18:55:00
2:15 PM,75.6,49.6,40,30.17,10.0,East,10.4,-,N/A,,Clear,100,2013-04-22 19:15:00
2:35 PM,75.6,49.1,39,30.16,10.0,ESE,8.1,-,N/A,,Clear,110,2013-04-22 19:35:00
2:55 PM,75.6,49.1,39,30.15,10.0,East,4.6,-,N/A,,Scattered Clouds,90,2013-04-22 19:55:00
3:15 PM,75.6,49.1,39,30.14,10.0,East,9.2,-,N/A,,Clear,100,2013-04-22 20:15:00
3:35 PM,75.6,48.4,38,30.13,10.0,East,6.9,-,N/A,,Scattered Clouds,80,2013-04-22 20:35:00
3:55 PM,75.6,49.1,39,30.13,10.0,ESE,9.2,-,N/A,,Scattered Clouds,120,2013-04-22 20:55:00
4:15 PM,75.6,48.6,38,30.13,10.0,East,9.2,16.1,N/A,,Scattered Clouds,80,2013-04-22 21:15:00
4:35 PM,75.6,50.2,41,30.13,10.0,ESE,8.1,-,N/A,,Scattered Clouds,120,2013-04-22 21:35:00
4:55 PM,75.6,50.4,41,30.13,10.0,Calm,Calm,-,N/A,,Clear,0,2013-04-22 21:55:00
5:15 PM,75.6,49.5,40,30.13,10.0,East,5.8,-,N/A,,Mostly Cloudy,100,2013-04-22 22:15:00
5:35 PM,75.6,50.2,41,30.13,10.0,ESE,5.8,-,N/A,,Scattered Clouds,110,2013-04-22 22:35:00
5:55 PM,75.6,49.8,40,30.13,10.0,East,8.1,-,N/A,,Mostly Cloudy,100,2013-04-22 22:55:00
6:15 PM,73.9,51.4,45,30.13,10.0,Calm,Calm,-,N/A,,Mostly Cloudy,0,2013-04-22 23:15:00
6:35 PM,73.0,51.4,47,30.13,10.0,ESE,4.6,-,N/A,,Mostly Cloudy,120,2013-04-22 23:35:00
6:55 PM,70.7,54.1,56,30.13,10.0,Calm,Calm,-,N/A,,Mostly Cloudy,0,2013-04-22 23:55:00
7:15 PM,70.7,54.5,56,30.13,10.0,Calm,Calm,-,N/A,,Mostly Cloudy,0,2013-04-23 00:15:00
7:35 PM,70.7,59.5,68,30.13,10.0,Calm,Calm,-,N/A,,Scattered Clouds,0,2013-04-23 00:35:00
7:55 PM,68.0,57.6,69,30.14,10.0,East,3.5,-,N/A,,Mostly Cloudy,100,2013-04-23 00:55:00
8:15 PM,68.0,56.3,66,30.14,10.0,Calm,Calm,-,N/A,,Mostly Cloudy,0,2013-04-23 01:15:00
8:35 PM,65.5,54.3,67,30.14,10.0,ESE,3.5,-,N/A,,Scattered Clouds,110,2013-04-23 01:35:00
8:55 PM,63.9,54.5,72,30.15,10.0,Calm,Calm,-,N/A,,Clear,0,2013-04-23 01:55:00
9:15 PM,63.0,52.5,69,30.15,10.0,Calm,Calm,-,N/A,,Clear,0,2013-04-23 02:15:00
9:35 PM,63.1,52.7,69,30.16,10.0,ESE,3.5,-,N/A,,Clear,120,2013-04-23 02:35:00
9:55 PM,63.0,51.6,66,30.16,10.0,ESE,3.5,-,N/A,,Clear,120,2013-04-23 02:55:00
10:15 PM,65.5,51.8,61,30.16,10.0,ESE,4.6,-,N/A,,Clear,110,2013-04-23 03:15:00
10:35 PM,62.8,51.4,66,30.16,10.0,Calm,Calm,-,N/A,,Clear,0,2013-04-23 03:35:00
10:55 PM,62.8,50.9,65,30.16,10.0,ESE,3.5,-,N/A,,Clear,120,2013-04-23 03:55:00
11:15 PM,62.8,51.1,66,30.16,10.0,Calm,Calm,-,N/A,,Clear,0,2013-04-23 04:15:00
11:35 PM,61.7,50.9,68,30.16,10.0,Calm,Calm,-,N/A,,Clear,0,2013-04-23 04:35:00
11:55 PM,61.7,51.1,68,30.16,10.0,Calm,Calm,-,N/A,,Clear,0,2013-04-23 04:55:00